User: anonymous   Login
Location: Caltech
(34.1382°N, 118.1253°W)
Time: 07:49:56
(UTC-08:00)
Language:

Cosmos 1939 Rocket - Orbit

View from above orbital plane
View from above orbital plane
View from above satellite
View from above satellite

Ground track
Ground track

The orbit data is extracted from the following two-line orbital elements,

1 19046U 88032B   17055.49098171  .00000996  00000-0  79132-4 0  9998
2 19046  97.5430 105.5739 0038904 351.8264   8.2322 15.02130873555724
Epoch (UTC): 24 February 2017 11:47:00
Eccentricity: 0.0038904
inclination: 97.5430°
perigee height: 533 km
apogee height: 587 km
right ascension of ascending node: 105.5739°
argument of perigee: 351.8264°
revolutions per day: 15.02130873
mean anomaly at epoch: 8.2322°
orbit number at epoch: 55572

The dashed part of the orbit path shows where the satellite is in the earth's shadow,  

DLR